This demonstration page uses our WeatherBlox Daily Observations layout. Learn more.

Left ArrowRight Arrow

Hourly Observations for August 10, 2021

Temp ( °F °C ) Dew Point ( °F °C ) Humidity (%) Winds ( mph kmh ) Pressure ( in mb ) Visibility ( mi km ) Precip ( " mm )
12:54 am 00:54 Clear 76 24.4 72 22.2 88 88 SSE 6 9 29.79 1009 10 16 0.00 0.00
1:54 am 01:54 Clear 77 25 73 22.8 88 88 S 6 9 29.77 1008 10 16 0.00 0.00
2:54 am 02:54 Clear 78 25.6 74 23.3 87 87 S 6 9 29.80 1009 10 16 0.00 0.00
3:54 am 03:54 Clear 79 26.1 74 23.3 85 85 W 5 7 29.81 1010 10 16 0.00 0.00
4:54 am 04:54 Clear 76 24.4 73 22.8 91 91 S 5 7 29.81 1009 9 14 0.00 0.00
5:54 am 05:54 Clear 79 26.1 72 22.2 79 79 W 9 15 29.82 1010 10 16 0.00 0.00
6:54 am 06:54 Mostly Sunny 78 25.6 68 20 71 71 E 9 15 29.73 1007 10 16 0.00 0.00
7:54 am 07:54 Sunny 78 25.6 69 20.6 74 74 NNW 10 17 29.81 1010 9 14 0.00 0.00
8:54 am 08:54 Sunny 80 26.7 69 20.6 69 69 undefined N/A 29.81 1010 9 14 0.00 0.00
9:54 am 09:54 Sunny 83 28.3 70 21.1 65 65 Calm 29.84 1010 9 14 0.00 0.00
10:54 am 10:54 Sunny 87 30.6 72 22.2 61 61 VRB 5 7 29.84 1011 9 14 0.00 0.00
11:54 am 11:54 Sunny 89 31.7 71 21.7 55 55 SW 7 11 29.84 1011 9 14 0.00 0.00
12:54 pm 12:54 Sunny 90 32.2 68 20 48 48 WSW 6 9 29.83 1010 10 16 0.00 0.00
1:54 pm 13:54 Sunny 91 32.8 72 22.2 54 54 N 7 11 29.82 1010 10 16 0.00 0.00
2:54 pm 14:54 Sunny 92 33.3 69 20.6 47 47 S 5 7 29.80 1009 10 16 0.00 0.00
3:54 pm 15:54 Sunny 92 33.3 68 20 46 46 SSW 9 15 29.81 1009 10 16 0.00 0.00
4:54 pm 16:54 Mostly Sunny 90 32.2 73 22.8 58 58 S 10 17 29.79 1009 10 16 0.00 0.00
5:54 pm 17:54 Sunny 90 32.2 74 23.3 59 59 SSE 6 9 29.77 1008 10 16 0.00 0.00
6:54 pm 18:54 Sunny 89 31.7 75 23.9 63 63 S 8 13 29.76 1008 10 16 0.00 0.00
7:54 pm 19:54 Sunny 86 30 75 23.9 70 70 S 8 13 29.77 1008 10 16 0.00 0.00
8:54 pm 20:54 Mostly Clear 84 28.9 75 23.9 74 74 S 10 17 29.77 1008 10 16 0.00 0.00
9:54 pm 21:54 Clear 82 27.8 75 23.9 79 79 SSW 7 11 29.78 1008 10 16 0.00 0.00
10:54 pm 22:54 Partly Cloudy 82 27.8 75 23.9 79 79 SSW 5 7 29.77 1008 10 16 0.00 0.00
11:54 pm 23:54 Clear 79 26.1 75 23.9 88 88 S 8 13 29.77 1008 10 16 0.00 0.00

Powered by AerisWeather